Location: Gibsondale
(40.9931°N, 80.2478°W)
Time: 17:47:36
(UTC+00:00)

Helios 1A Rocket - Pass Details

Date: 29 October 2020
Orbit: 562 x 587 km, 98.3° (Epoch: 23 November)

Event Time Altitude Azimuth Distance (km) Brightness Sun altitude
Rises 23:35:50 0° 159° (SSE) 2,793 6.3 -14.9°
Reaches altitude 10° 23:37:59 10° 157° (SSE) 1,895 5.4 -15.3°
Maximum altitude 23:42:04 67° 74° (ENE) 631 2.8 -16.0°
Drops below altitude 10° 23:46:09 10° 352° (N) 1,896 5.6 -16.8°
Sets 23:48:18 0° 350° (N) 2,795 6.5 -17.2°
